sat.trackr.live / text

‹ back to catalog

STARLINK-2513

NORAD 48317 · 2021-036AT

PAYLOAD ACTIVE UNKNOWN

§ Identity

Operator
Country
US
Launch date
2021-04-29
Launch site
AFETR
Launch vehicle
Mass (kg)
RCS (m²)

Purposes: comms

External: N2YO · Heavens-Above · Gunter

§ Orbital elements

Epoch: 2026-09-12T11:52:05.065248Z

Period
94.01 min
Inclination
53.1578°
Eccentricity
0.0000856
Mean motion
15.31700795 rev/d
Perigee alt
470.2 km
Apogee alt
471.3 km
Semi-major
6,848.9 km
B*
-3.3566e-5
RAAN
298.8352°
Arg perigee
129.5314°
Mean anomaly
230.5763°
Rev number
29,684

§ Raw data

STARLINK-25131 48317U 21036AT  26255.49450307 -.00001406  00000+0 -33566-4 0  99962 48317  53.1578 298.8352 0000856 129.5314 230.5763 15.31700795296848

JSON: /api/v1/satellites/48317 · /tle

For live sub-satellite position, see the globe view (requires WebGL).

§ Visibility from observer

Set your observer location to see the next 7 days of passes ≥ 10°. The values pass through the URL so the page stays shareable.

No JS? Fill the form by hand. The geolocation button needs JavaScript.